User: anonymous   Login
Location: Unspecified
(0.0000°N, 0.0000°E)
Time: 02:12:35
(UTC+00:00)
Language:

STARLINK-6316 - Orbit

View from above orbital plane
View from above orbital plane
View from above satellite
View from above satellite

Ground track
Ground track

The orbit is defined by the following mean orbital elements,

1 57335U          26145.52437431 +.00000000 +00000-0 +16981-4 0 00002
2 57335  43.0022 175.3926 0001118 276.3730  83.6995 15.27575362    01
Epoch (UTC): 25 May 2026 12:35:05
Eccentricity: 0.0001118
inclination: 43.0022°
perigee height: 482 km
apogee height: 484 km
right ascension of ascending node: 175.3926°
argument of perigee: 276.3730°
revolutions per day: 15.27575362
mean anomaly at epoch: 83.6995°

The dashed part of the orbit path shows where the satellite is in the earth's shadow,  

DLR